| time (UTC) | temp C | wind direction | speed KPH | gust KPH | rain 1hr cm | rain 24hr cm | rain mn cm | humidity % | barometer mb |
| 20260505152616 | 25 | 135 | 1.6 | 6.4 | 0.00 | 0.03 | 0.03 | 48 | 1011.0 |
| 20260505151616 | 24 | 0.0 | 3.2 | 0.00 | 0.03 | 0.03 | 48 | 1011.1 | |
| 20260505150615 | 24 | 113 | 1.6 | 9.7 | 0.00 | 0.03 | 0.03 | 51 | 1011.2 |
| 20260505140616 | 21 | 90 | 3.2 | 9.7 | 0.00 | 0.03 | 0.03 | 59 | 1011.6 |
| 20260505124615 | 17 | 0.0 | 3.2 | 0.00 | 0.03 | 0.03 | 76 | 1011.1 | |
| 20260505123615 | 16 | 0.0 | 0.0 | 0.00 | 0.03 | 0.03 | 84 | 1011.1 | |
| 20260505122615 | 16 | 0.0 | 1.6 | 0.00 | 0.03 | 0.03 | 88 | 1011.1 | |
| 20260505121615 | 15 | 0.0 | 0.0 | 0.00 | 0.03 | 0.03 | 91 | 1011.1 | |
| 20260505120615 | 15 | 0.0 | 0.0 | 0.03 | 0.03 | 0.03 | 91 | 1011.2 | |
| 20260505115615 | 13 | 0.0 | 0.0 | 0.03 | 0.03 | 0.03 | 91 | 1011.2 | |
| 20260505114615 | 13 | 0.0 | 0.0 | 0.03 | 0.03 | 0.03 | 90 | 1011.2 | |
| 20260505113615 | 13 | 0.0 | 0.0 | 0.03 | 0.03 | 0.03 | 89 | 1011.3 | |
| 20260505112615 | 13 | 0.0 | 0.0 | 0.03 | 0.03 | 0.03 | 89 | 1011.3 | |
| 20260505111615 | 13 | 248 | 1.6 | 4.8 | 0.03 | 0.03 | 0.03 | 87 | 1010.7 |
| 20260505110615 | 13 | 0.0 | 0.0 | 0.00 | 0.00 | 0.00 | 86 | 1011.3 | |
| 20260505101617 | 11 | 0.0 | 0.0 | 0.00 | 0.00 | 0.00 | 85 | 1011.1 | |
| 20260505100617 | 11 | 0.0 | 0.0 | 0.00 | 0.00 | 0.00 | 85 | 1010.9 | |
| 20260505095637 | 11 | 0.0 | 0.0 | 0.00 | 0.00 | 0.00 | 86 | 1010.8 | |
| 20260505094617 | 11 | 0.0 | 0.0 | 0.00 | 0.00 | 0.00 | 86 | 1010.8 | |
| 20260505093617 | 11 | 0.0 | 0.0 | 0.00 | 0.00 | 0.00 | 87 | 1010.3 | |
| 20260505092617 | 11 | 0.0 | 0.0 | 0.00 | 0.00 | 0.00 | 86 | 1010.4 | |
| 20260505091617 | 11 | 0.0 | 0.0 | 0.00 | 0.00 | 0.00 | 85 | 1010.3 | |
| 20260505090617 | 11 | 0.0 | 0.0 | 0.00 | 0.00 | 0.00 | 85 | 1010.4 | |
| 20260505085617 | 11 | 0.0 | 0.0 | 0.00 | 0.00 | 0.00 | 84 | 1010.4 | |
| 20260505084617 | 11 | 0.0 | 0.0 | 0.00 | 0.00 | 0.00 | 84 | 1010.3 | |
| 20260505083617 | 11 | 0.0 | 0.0 | 0.00 | 0.00 | 0.00 | 83 | 1010.3 | |
| 20260505082617 | 11 | 0.0 | 0.0 | 0.00 | 0.00 | 0.00 | 83 | 1010.4 | |
| 20260505081617 | 11 | 0.0 | 0.0 | 0.00 | 0.00 | 0.00 | 82 | 1010.4 | |
| 20260505080617 | 11 | 0.0 | 0.0 | 0.00 | 0.00 | 0.00 | 82 | 1010.3 | |
| 20260505075617 | 11 | 0.0 | 0.0 | 0.00 | 0.00 | 0.00 | 81 | 1010.3 | |
| 20260505074637 | 12 | 0.0 | 0.0 | 0.00 | 0.00 | 0.00 | 80 | 1010.3 | |
| 20260505073617 | 12 | 0.0 | 0.0 | 0.00 | 0.00 | 0.00 | 80 | 1010.4 | |
| 20260505072617 | 12 | 0.0 | 0.0 | 0.00 | 0.00 | 0.00 | 80 | 1010.4 | |
| 20260505071637 | 12 | 0.0 | 0.0 | 0.00 | 0.00 | 0.00 | 80 | 1010.3 | |
| 20260505070637 | 12 | 0.0 | 0.0 | 0.00 | 0.00 | 0.00 | 79 | 1010.3 | |
| 20260505070417 | 12 | 0.0 | 0.0 | 0.00 | 0.00 | 0.00 | 79 | 1010.3 | |
| 20260505065417 | 12 | 0.0 | 0.0 | 0.00 | 0.00 | 0.00 | 78 | 1010.4 | |
| 20260505064417 | 12 | 0.0 | 0.0 | 0.00 | 0.00 | 0.00 | 77 | 1010.3 | |
| 20260505063417 | 12 | 0.0 | 0.0 | 0.00 | 0.00 | 0.00 | 77 | 1010.4 | |
| 20260505062417 | 12 | 0.0 | 0.0 | 0.00 | 0.00 | 0.00 | 76 | 1010.4 | |
| 20260505061417 | 12 | 0.0 | 0.0 | 0.00 | 0.00 | 0.00 | 75 | 1010.6 | |
| 20260505060417 | 13 | 0.0 | 0.0 | 0.00 | 0.00 | 0.00 | 73 | 1010.7 | |
| 20260505055417 | 13 | 0.0 | 0.0 | 0.00 | 0.00 | 0.00 | 72 | 1010.6 | |
| 20260505054417 | 13 | 0.0 | 0.0 | 0.00 | 0.00 | 0.00 | 71 | 1010.6 | |
| 20260505053417 | 13 | 0.0 | 0.0 | 0.00 | 0.00 | 0.00 | 70 | 1010.7 | |
| 20260505052416 | 13 | 0.0 | 0.0 | 0.00 | 0.00 | 0.00 | 69 | 1010.7 | |
| 20260505051417 | 14 | 0.0 | 0.0 | 0.00 | 0.00 | 0.00 | 68 | 1010.7 | |
| 20260505050417 | 14 | 0.0 | 0.0 | 0.00 | 0.00 | 0.00 | 68 | 1010.8 | |
| 20260505041417 | 15 | 0.0 | 0.0 | 0.00 | 0.00 | 0.00 | 65 | 1010.9 | |
| 20260505040437 | 15 | 0.0 | 0.0 | 0.00 | 0.00 | 0.00 | 64 | 1010.8 | |
| 20260505035417 | 15 | 0.0 | 0.0 | 0.00 | 0.00 | 0.00 | 63 | 1010.8 | |
| 20260505034416 | 15 | 0.0 | 0.0 | 0.00 | 0.00 | 0.00 | 63 | 1010.9 | |
| 20260505033417 | 15 | 0.0 | 1.6 | 0.00 | 0.00 | 0.00 | 62 | 1010.9 | |
| 20260505032417 | 15 | 0.0 | 0.0 | 0.00 | 0.00 | 0.00 | 62 | 1011.1 | |
| 20260505031417 | 15 | 0.0 | 3.2 | 0.00 | 0.00 | 0.00 | 61 | 1011.1 | |
| 20260505030417 | 15 | 0.0 | 3.2 | 0.00 | 0.00 | 0.00 | 60 | 1011.1 | |
| 20260505025436 | 15 | 0.0 | 0.0 | 0.00 | 0.00 | 0.00 | 59 | 1011.2 | |
| 20260505024437 | 15 | 0.0 | 3.2 | 0.00 | 0.00 | 0.00 | 59 | 1011.2 | |
| 20260505023416 | 15 | 0.0 | 0.0 | 0.00 | 0.00 | 0.00 | 58 | 1011.3 | |
| 20260505022437 | 15 | 0.0 | 0.0 | 0.00 | 0.00 | 0.00 | 57 | 1011.3 | |
| 20260505021417 | 16 | 0.0 | 0.0 | 0.00 | 0.00 | 0.00 | 56 | 1011.2 | |
| 20260505020416 | 15 | 0.0 | 1.6 | 0.00 | 0.00 | 0.00 | 55 | 1011.2 | |
| 20260505015437 | 15 | 0.0 | 0.0 | 0.00 | 0.00 | 0.00 | 55 | 1011.1 | |
| 20260505014457 | 15 | 0.0 | 0.0 | 0.00 | 0.00 | 0.00 | 55 | 1011.1 | |
| 20260505013417 | 15 | 0.0 | 0.0 | 0.00 | 0.00 | 0.00 | 53 | 1011.0 | |
| 20260505012417 | 16 | 0.0 | 0.0 | 0.00 | 0.00 | 0.00 | 53 | 1011.0 | |
| 20260505011417 | 16 | 0.0 | 0.0 | 0.00 | 0.00 | 0.00 | 52 | 1010.8 | |
| 20260505010437 | 16 | 0.0 | 0.0 | 0.00 | 0.00 | 0.00 | 51 | 1010.6 | |
| 20260505005417 | 16 | 0.0 | 0.0 | 0.00 | 0.00 | 0.00 | 50 | 1010.5 | |
| 20260505004416 | 17 | 0.0 | 0.0 | 0.00 | 0.00 | 0.00 | 49 | 1010.4 | |
| 20260505003417 | 17 | 0.0 | 0.0 | 0.00 | 0.00 | 0.00 | 48 | 1010.2 | |
| 20260505002416 | 17 | 0.0 | 0.0 | 0.00 | 0.00 | 0.00 | 47 | 1010.2 | |
| 20260505001416 | 18 | 0.0 | 0.0 | 0.00 | 0.00 | 0.00 | 45 | 1010.1 | |
| 20260505000416 | 18 | 0.0 | 0.0 | 0.00 | 0.00 | 0.00 | 44 | 1009.8 | |
| 20260504235436 | 18 | 0.0 | 0.0 | 0.00 | 0.00 | 0.00 | 43 | 1009.7 | |
| 20260504234417 | 18 | 0.0 | 0.0 | 0.00 | 0.00 | 0.00 | 43 | 1009.6 | |
| 20260504233416 | 18 | 0.0 | 0.0 | 0.00 | 0.00 | 0.00 | 43 | 1009.3 | |
| 20260504232437 | 19 | 0.0 | 0.0 | 0.00 | 0.00 | 0.00 | 42 | 1009.3 | |
| 20260504231416 | 19 | 0.0 | 0.0 | 0.00 | 0.00 | 0.00 | 43 | 1009.2 | |
| 20260504230416 | 19 | 0.0 | 0.0 | 0.00 | 0.00 | 0.00 | 43 | 1009.0 | |
| 20260504225416 | 20 | 0.0 | 0.0 | 0.00 | 0.00 | 0.00 | 41 | 1009.0 | |
| 20260504224416 | 20 | 0.0 | 3.2 | 0.00 | 0.00 | 0.00 | 40 | 1009.1 | |
| 20260504223416 | 20 | 0.0 | 1.6 | 0.00 | 0.00 | 0.00 | 40 | 1009.1 | |
| 20260504222416 | 20 | 0.0 | 0.0 | 0.00 | 0.00 | 0.00 | 41 | 1009.1 | |
| 20260504221416 | 20 | 0.0 | 0.0 | 0.00 | 0.00 | 0.00 | 40 | 1009.1 | |
| 20260504220416 | 20 | 0.0 | 0.0 | 0.00 | 0.00 | 0.00 | 40 | 1009.2 | |
| 20260504215416 | 21 | 0.0 | 0.0 | 0.00 | 0.00 | 0.00 | 39 | 1009.4 | |
| 20260504214416 | 21 | 0.0 | 1.6 | 0.00 | 0.00 | 0.00 | 39 | 1009.5 | |
| 20260504213416 | 21 | 113 | 3.2 | 9.7 | 0.00 | 0.00 | 0.00 | 37 | 1009.6 |
| 20260504212416 | 21 | 0.0 | 1.6 | 0.00 | 0.00 | 0.00 | 37 | 1009.5 | |
| 20260504211416 | 21 | 0.0 | 1.6 | 0.00 | 0.00 | 0.00 | 36 | 1009.7 | |
| 20260504210416 | 21 | 203 | 3.2 | 6.4 | 0.00 | 0.00 | 0.00 | 35 | 1009.6 |
| 20260504205416 | 21 | 0.0 | 1.6 | 0.00 | 0.00 | 0.00 | 36 | 1009.6 | |
| 20260504204416 | 22 | 0.0 | 1.6 | 0.00 | 0.00 | 0.00 | 36 | 1009.5 | |
| 20260504203416 | 22 | 0.0 | 1.6 | 0.00 | 0.00 | 0.00 | 35 | 1009.6 | |
| 20260504202417 | 23 | 90 | 1.6 | 3.2 | 0.00 | 0.00 | 0.00 | 33 | 1009.6 |
| 20260504201416 | 23 | 113 | 3.2 | 11.3 | 0.00 | 0.00 | 0.00 | 32 | 1009.8 |
| 20260504200416 | 23 | 113 | 1.6 | 3.2 | 0.00 | 0.00 | 0.00 | 32 | 1009.8 |
| 20260504195436 | 23 | 0.0 | 0.0 | 0.00 | 0.00 | 0.00 | 32 | 1009.9 | |
| 20260504194416 | 23 | 0.0 | 1.6 | 0.00 | 0.00 | 0.00 | 33 | 1010.0 | |
| 20260504193416 | 23 | 68 | 1.6 | 3.2 | 0.00 | 0.00 | 0.00 | 34 | 1010.1 |
| 20260504192416 | 23 | 0.0 | 1.6 | 0.00 | 0.00 | 0.00 | 33 | 1010.1 | |
| 20260504191416 | 23 | 0.0 | 1.6 | 0.00 | 0.00 | 0.00 | 34 | 1010.3 | |
| 20260504190416 | 22 | 68 | 1.6 | 4.8 | 0.00 | 0.00 | 0.00 | 33 | 1010.4 |
| 20260504185416 | 22 | 45 | 1.6 | 3.2 | 0.00 | 0.00 | 0.00 | 34 | 1010.5 |
| 20260504184416 | 23 | 113 | 1.6 | 6.4 | 0.00 | 0.00 | 0.00 | 34 | 1010.7 |
| 20260504183416 | 22 | 135 | 1.6 | 6.4 | 0.00 | 0.00 | 0.00 | 34 | 1010.8 |
| 20260504182436 | 22 | 0.0 | 1.6 | 0.00 | 0.00 | 0.00 | 34 | 1010.9 | |
| 20260504181416 | 22 | 90 | 3.2 | 6.4 | 0.00 | 0.00 | 0.00 | 33 | 1011.0 |
| 20260504180416 | 22 | 90 | 1.6 | 14.5 | 0.00 | 0.00 | 0.00 | 34 | 1011.1 |
| 20260504175416 | 22 | 0.0 | 3.2 | 0.00 | 0.00 | 0.00 | 34 | 1011.2 | |
| 20260504174416 | 22 | 0.0 | 1.6 | 0.00 | 0.00 | 0.00 | 38 | 1011.3 | |
| 20260504173416 | 22 | 68 | 1.6 | 4.8 | 0.00 | 0.00 | 0.00 | 35 | 1011.4 |
| 20260504172416 | 21 | 225 | 1.6 | 3.2 | 0.00 | 0.00 | 0.00 | 36 | 1011.5 |
| 20260504171416 | 21 | 68 | 1.6 | 4.8 | 0.00 | 0.00 | 0.00 | 36 | 1011.8 |
| 20260504170416 | 21 | 203 | 1.6 | 4.8 | 0.00 | 0.00 | 0.00 | 36 | 1011.7 |